Content
SEND FEEDBACK

Daily
Averages
Monthly
Summary
United States of America

ST GEORGE ISLAND, ALASKA


Home > North America > United States > Alaska
Elevation: 30 meters     Latitude: 56 36N     Longitude: 169 32W

WEATHER
 
SELECT A DAY
Number of Records: 266,968;   Date Range: 7/11/96 - 9/22/14
 
SHARE

PRINT THIS DATA

[ ← Previous Day ]
WEATHER ALMANAC - 31 JANUARY, 2013
[ Next Day → ]
[ °F ]   °C
Weather ElementAverageHighLow
Temperature-2.6 °C0.6 °C (1:53 am)-7.2 °C (7:53 am)
Dewpoint-5.4 °C-2.8 °C (6:53 pm)-8.9 °C (7:53 am)
Humidity81.9 %89 % (9:53 am)70 % (1:53 am)
Barometer1008.1 hPa1009.8 hPa (12:53 pm)1004.7 hPa (1:53 am)
Wind Speed17.1 km/h40.7 km/h (11:53 pm)
Weather ElementAverage
Visibility16.1 km
Wind DirectionENE (64.5 °)

Weather ElementTotal
Precipitation---
Heating Degree Days21.7 (Base 18.3)
Averaged from 22 records on 31 January, 2013
WEATHER CONDITIONS BREAKOUT
WIND DIRECTION BREAKOUT
WEATHER BY HOUR - 31 JANUARY, 2013
[ °F ]   °C
Local TimeTemperatureDewpointHumidityBarometerVisibilityWind DirectionWind SpeedGust SpeedPrecipitationEventsConditions
1:53 AM0.6 °C-4.4 °C70 %1004.7 hPa16.1 kmSW (220°)20.4 km/hScattered Clouds
3:53 AM0 °C-3.9 °C75 %1006.1 hPa16.1 kmWSW (240°)22.2 km/hOvercast
4:53 AM0 °C-3.9 °C75 %1006.4 hPa16.1 kmSSW (210°)13 km/hPartly Cloudy
5:53 AM-5 °C-7.2 °C85 %1006.8 hPa16.1 kmCalmClear
6:53 AM-5 °C-7.2 °C85 %1007.1 hPa16.1 kmENE (60°)5.6 km/hClear
7:53 AM-7.2 °C-8.9 °C88 %1007.1 hPa16.1 kmNE (40°)5.6 km/hClear
8:53 AM-6.1 °C-7.8 °C88 %1007.8 hPa16.1 kmNNE (30°)5.6 km/hClear
9:53 AM-6.7 °C-8.3 °C89 %1008.5 hPa16.1 kmENE (70°)7.4 km/hClear
10:53 AM-6.7 °C-8.9 °C85 %1008.5 hPa16.1 kmNE (40°)9.3 km/hClear
11:53 AM-6.1 °C-8.3 °C85 %1009.1 hPa16.1 kmENE (60°)9.3 km/hClear
12:53 PM-4.4 °C-6.7 °C84 %1009.8 hPa16.1 kmENE (60°)9.3 km/hClear
1:53 PM-3.3 °C-5 °C88 %1009.8 hPa16.1 kmNE (50°)11.1 km/hClear
2:53 PM-1.1 °C-3.9 °C82 %1009.5 hPa16.1 kmNNE (20°)14.8 km/hClear
3:53 PM-1.1 °C-3.9 °C82 %1009.5 hPa16.1 kmNNE (20°)11.1 km/hClear
4:53 PM-0.6 °C-3.9 °C79 %1009.5 hPa16.1 kmNNE (20°)16.7 km/hClear
5:53 PM-0.6 °C-3.3 °C82 %1009.1 hPa16.1 kmNNE (30°)18.5 km/hClear
6:53 PM-0.6 °C-2.8 °C85 %1009.1 hPa16.1 kmNNE (30°)27.8 km/hClear
7:53 PM0 °C-2.8 °C82 %1009.1 hPa16.1 kmNNE (30°)27.8 km/hScattered Clouds
8:53 PM-1.1 °C-4.4 °C79 %1008.8 hPa16.1 kmNE (40°)29.6 km/hClear
9:53 PM-1.1 °C-4.4 °C79 %1008.5 hPa16.1 kmNE (50°)31.5 km/hClear
10:53 PM-0.6 °C-4.4 °C76 %1008.5 hPa16.1 kmNE (50°)37 km/hScattered Clouds
11:53 PM-1.1 °C-4.4 °C79 %1008.1 hPa14.5 kmNE (50°)40.7 km/h0 mmSnowLight Snow
Hourly data recorded from PAPB, located 0 kilometers away from St George Island, Alaska







STORIES FROM OUR PARTNERS